Regional Weather Roundup
Issued by NWS

Home | Current Version | Previous Version | Text Only | Print | Product List | Glossary On
Versions: 1 2 3 4 5 6 7 8 9 10 11 12 13 14 15 16 17 18 19 20 21 22 23 24 25 26 27 28 29 30 31 32 33 34 35 36 37 38 39 40 41 42 43 44 45 46 47 48 49 50
000
ASUS43 KMPX 251710
RWRMN
WEATHER ROUNDUP FOR MINNESOTA
NATIONAL WEATHER SERVICE TWIN CITIES/CHANHASSEN MN
1200 PM CDT TUE APR 25 2017


NOTE: "FAIR" INDICATES FEW OR NO CLOUDS BELOW 12,000 FEET WITH NO
SIGNIFICANT WEATHER AND/OR OBSTRUCTIONS TO VISIBILITY. N/A MEANS
CURRENT SKY AND/OR WEATHER CONDITIONS ARE NOT AVAILABLE.

MNZ060>063-068>070-251800-
   Twin Cities Metro

CITY           SKY/WX    TMP DP  RH WIND       PRES   REMARKS
TWIN CITIES    CLOUDY    58  45  62 SW8       29.55S
ST PAUL        CLOUDY    61  47  59 W9        29.55R
CRYSTAL        CLOUDY    58  46  64 W3        29.55R
BLAINE         CLOUDY    63  48  59 W6        29.55R
LAKEVILLE      CLOUDY    54  46  76 W6        29.56R
EDEN PRAIRIE   CLOUDY    53  46  77 SW7       29.55R
SOUTH ST PAUL  CLOUDY    62  43  51 SW6       29.55R
LAKE ELMO      FAIR      63  45  51 SW9       29.55R
$$
MNZ001>005-007-008-013>017-022>024-027-028-251800-
   Northwest Minnesota

CITY           SKY/WX    TMP DP  RH WIND       PRES   REMARKS
BEMIDJI        CLOUDY    34  33  96 N12       29.72R WCI  25
HALLOCK        CLOUDY    34  27  75 NE15      29.88R WCI  24
ROSEAU         CLOUDY    30  27  86 NE20      29.84R WCI  18
WARROAD        CLOUDY    30  27  86 N17G23    29.85R WCI  18
CROOKSTON      CLOUDY    34  30  86 NE20G26   29.80R WCI  22
FOSSTON        CLOUDY    34  34 100 N14G23    29.73F WCI  24
DETROIT LAKES  CLOUDY    37  36  93 N12G20    29.70R
MOORHEAD       CLOUDY    36  30  80 N23       29.75R
PARK RAPIDS    CLOUDY    41  33  73 N15G21    29.66R
MAHNOMEN       CLOUDY    35  33  90 N22       29.71S WCI  24
$$
MNZ006-009>011-018-025>026-251800-
   North Central Minnesota

CITY           SKY/WX    TMP DP  RH WIND       PRES   REMARKS
BAUDETTE       CLOUDY    32  27  81 NE15G25   29.81R WCI  22
FLAG ISLAND    CLOUDY    28  25  86 N24       29.86R WCI  14
INTL FALLS     CLOUDY    32  28  85 N10       29.79R WCI  24
WASKISH        CLOUDY    34  32  93 NE13G18   29.77R WCI  25
BIG FORK       FOG       36  34  93 N9        29.71R VSB 1
LONGVILLE      CLOUDY    39  37  93 N9G17     29.66S
GRAND RAPIDS   CLOUDY    43  37  79 N12       29.67R
CRANE LAKE     CLOUDY    37  36  93 N8        29.74R
ORR            CLOUDY    37  34  87 N3        29.68R
COOK           CLOUDY    39  37  93 N8        29.69R
WALKER         CLOUDY    36  33  90 N14       29.69R
$$
MNZ012-019>021-037-251800-
   Northeast Minnesota

CITY           SKY/WX    TMP DP  RH WIND       PRES   REMARKS
DULUTH         CLOUDY    54  41  61 E5        29.61R
ELY            CLOUDY    43  39  87 N5        29.67R
HIBBING        CLOUDY    46  40  79 NE9       29.65R
EVELETH        CLOUDY    45  38  74 N8        29.66R
DULUTH HARBOR  CLOUDY    43  39  87 NE8       29.64R
TWO HARBORS    CLOUDY    57  43  58 E8        29.60R
SILVER BAY     PTSUNNY   52  39  62 NE7       29.61R
GRAND MARAIS     N/A     42  39  89 NE6       29.65R
G MARAIS ARPRT CLOUDY    45  37  76 NE3       29.65R
$$
MNZ029>031-032-039>041-046>048-054>057-064-251800-
   West Central Minnesota

CITY           SKY/WX    TMP DP  RH WIND       PRES   REMARKS
FERGUS FALLS   CLOUDY    37  37 100 N10G16    29.68R
WHEATON        CLOUDY    36  34  93 NW18G25   29.70F
MORRIS         CLOUDY    43  39  87 N17       29.63S
ALEXANDRIA     CLOUDY    44  39  82 N17       29.62S
ELBOW LAKE     CLOUDY    41  38  88 NE13G20   29.65S
WADENA         CLOUDY    39  37  93 N16G22    29.64S
GLENWOOD       CLOUDY    45  39  81 N15       29.61S
APPLETON       CLOUDY    41  37  87 N18       29.63F
BENSON         CLOUDY    46  39  76 N13       29.62F
ORTONVILLE     CLOUDY    36  34  93 N18       29.66R
MADISON        CLOUDY    41  39  93 N18G24    29.64F
WILLMAR        CLOUDY    50  45  81 N12       29.59F
$$
MNZ033>034-036-042>043-049>051-058-059-251800-
   Central Minnesota

CITY           SKY/WX    TMP DP  RH WIND       PRES   REMARKS
ST CLOUD       CLOUDY    56  44  64 N10       29.56S
SAUK CENTRE    CLOUDY    48  40  75 N14       29.59F
PAYNESVILLE    CLOUDY    53  42  66 N8        29.57F
AITKIN         PTSUNNY   54  37  54 N12G17    29.60S
PINE RIVER     CLOUDY    41  37  87 N12G21    29.69R
BRAINERD       CLOUDY    50  40  68 N16       29.62R
STAPLES        CLOUDY    43  37  81 N14G20    29.64R
LONG PRAIRIE   CLOUDY    46  39  76 NW13G18   29.61S
LITTLE FALLS   MOSUNNY   52  39  62 N8        29.58F
LITCHFIELD     CLOUDY    55  46  71 N10       29.56F
BUFFALO        CLOUDY    57  45  63 NW5       29.57R
MAPLE LAKE     CLOUDY    57  46  67 N9        29.57R
HUTCHINSON     CLOUDY    54  47  78 NW8       29.57S
$$
MNZ037-044-045-052-053-251800-
   East Central Minnesota

CITY           SKY/WX    TMP DP  RH WIND       PRES   REMARKS
PRINCETON      PTSUNNY   61  46  59 NW7       29.56R
MORA           MOSUNNY   57  41  54 N5        29.58S
CAMBRIDGE      PTSUNNY   63  46  55 N6        29.53S
RUSH CITY      CLOUDY    63  44  50 N7        29.55R
MOOSE LAKE     CLOUDY    54  41  62 NE8       29.58R
HINCKLEY       CLOUDY    59  43  55 N10       29.57R
CLOQUET        CLOUDY    54  39  58 E7        29.61R
MCGREGOR       PTSUNNY   52  43  71 N10G16    29.62R
$$
MNZ071>073-080-081-089-090-097-098-251800-
   Southwest Minnesota

CITY           SKY/WX    TMP DP  RH WIND       PRES   REMARKS
MONTEVIDEO     CLOUDY    39  39 100 N17       29.61F
GRANITE FALLS  CLOUDY    41  39  91 NW16      29.62F
CANBY          CLOUDY    38  37  96 NW14G20   29.65F
MARSHALL       CLOUDY    38  36  92 N17       29.62S
REDWOOD FALLS  CLOUDY    42  38  85 NW9       29.60S
OLIVIA         CLOUDY    41  37  87 NW10      29.58S
PIPESTONE      CLOUDY    39  34  81 NE10G16   29.61R
WINDOM         CLOUDY    39  37  93 NW13      29.61R
WORTHINGTON    LGT RAIN  39  37  92 N13       29.61S
JACKSON        RAIN      37  36  93 NW12      29.61R
TRACY          CLOUDY    40  37  91 NW15      29.62S
SLAYTON        CLOUDY    37  36  97 N12       29.63R
$$
MNZ065>067-074>077-082>085-091>093-251800-
   South Central Minnesota

CITY           SKY/WX    TMP DP  RH WIND       PRES   REMARKS
MANKATO        CLOUDY    45  42  89 W12       29.58S
NEW ULM        CLOUDY    43  41  93 NW9       29.58F
ST JAMES       CLOUDY    43  39  87 NW12      29.60S
FAIRMONT       LGT RAIN  41  39  93 NW16      29.59S
GLENCOE        CLOUDY    50  48  93 SW6       29.57R
FARIBAULT      CLOUDY    52  45  76 SW8       29.57S
OWATONNA       PTSUNNY   52  43  71 W9        29.58R
WASECA         CLOUDY    45  41  87 W9        29.59R
ALBERT LEA     HVY RAIN  48  41  76 W8        29.59R
$$
MNZ078>079-086>088-094>096-251800-
   Southeast Minnesota

CITY           SKY/WX    TMP DP  RH WIND       PRES   REMARKS
ROCHESTER      CLOUDY    64  44  48 SE9       29.54S
RED WING       CLOUDY    70  37  30 S9        29.52R
STANTON        PTSUNNY   58  46  64 W9        29.54R
DODGE CENTER   CLOUDY    63  41  45 CALM      29.54R
WINONA         CLOUDY    70  43  37 E6        29.54S
AUSTIN         CLOUDY    61  45  55 SW8       29.56R
PRESTON        CLOUDY    64  42  44 SE9       29.56R
$$
ABBREVIATIONS USED IN REMARKS
   TC - TEMPERATURES IN CELSIUS
  WCI - WIND CHILL INDEX
   HX - HEAT INDEX
  VSB - VISIBILITY
$$




USA.gov is the U.S. government's official web portal to all federal, state and local government web resources and services.